Time,TemperatureF,DewpointF,PressureIn,WindDirection,WindDirectionDegrees,WindSpeedMPH,WindSpeedGustMPH,Humidity,HourlyPrecipIn,Conditions,Clouds,dailyrainin,SoftwareType,DateUTC
2013-01-12 00:00:00,53.6,52.8,30.18,SE,136,2.0,3.0,97,0.00,,---,0.01,VWS V14.01,2013-01-12 05:00:00,
2013-01-12 00:01:00,53.6,52.8,30.18,SSE,160,2.0,3.0,97,0.00,,---,0.01,VWS V14.01,2013-01-12 05:01:00,
2013-01-12 00:03:00,53.6,52.8,30.18,SE,136,2.0,3.0,97,0.00,,---,0.00,VWS V14.01,2013-01-12 05:03:00,
2013-01-12 00:08:00,53.6,52.8,30.18,SSE,151,1.0,2.0,97,0.00,,---,0.00,VWS V14.01,2013-01-12 05:08:00,
2013-01-12 00:13:00,53.5,52.7,30.18,SSE,161,2.0,2.0,97,0.00,,---,0.00,VWS V14.01,2013-01-12 05:13:00,
2013-01-12 00:18:00,53.5,52.7,30.18,SSE,153,2.0,3.0,97,0.00,,---,0.00,VWS V14.01,2013-01-12 05:18:00,
2013-01-12 00:23:00,53.5,52.7,30.18,SSE,166,2.0,2.0,97,0.00,,---,0.00,VWS V14.01,2013-01-12 05:23:00,
2013-01-12 00:28:00,53.5,52.7,30.18,SSE,160,3.0,3.0,97,0.00,,---,0.00,VWS V14.01,2013-01-12 05:28:00,
2013-01-12 00:33:00,53.6,52.8,30.18,SSE,153,2.0,3.0,97,0.00,,---,0.00,VWS V14.01,2013-01-12 05:33:00,
2013-01-12 00:38:00,53.6,52.8,30.18,SSE,162,2.0,3.0,97,0.00,,---,0.00,VWS V14.01,2013-01-12 05:38:00,
2013-01-12 00:43:00,53.6,52.8,30.17,South,172,3.0,4.0,97,0.00,,---,0.00,VWS V14.01,2013-01-12 05:43:00,
2013-01-12 00:48:00,53.6,52.8,30.17,SSE,163,2.0,3.0,97,0.00,,---,0.00,VWS V14.01,2013-01-12 05:48:00,
2013-01-12 00:53:00,53.7,52.9,30.17,South,169,2.0,3.0,97,0.00,,---,0.00,VWS V14.01,2013-01-12 05:53:00,
2013-01-12 00:58:00,53.6,52.8,30.17,South,181,2.0,2.0,97,0.00,,---,0.00,VWS V14.01,2013-01-12 05:58:00,
2013-01-12 01:03:00,53.6,52.8,30.17,South,191,2.0,2.0,97,0.00,,---,0.00,VWS V14.01,2013-01-12 06:03:00,
2013-01-12 01:08:00,53.7,52.9,30.17,SSW,210,2.0,3.0,97,0.00,,---,0.00,VWS V14.01,2013-01-12 06:08:00,
2013-01-12 01:13:00,53.6,52.8,30.17,South,188,3.0,4.0,97,0.00,,---,0.00,VWS V14.01,2013-01-12 06:13:00,
2013-01-12 01:18:00,53.4,52.6,30.17,SSW,205,2.0,4.0,97,0.00,,---,0.00,VWS V14.01,2013-01-12 06:18:00,
2013-01-12 01:23:00,53.7,52.9,30.17,SSW,207,2.0,4.0,97,0.00,,---,0.00,VWS V14.01,2013-01-12 06:23:00,
2013-01-12 01:28:00,54.0,53.2,30.17,SW,221,1.0,2.0,97,0.00,,---,0.00,VWS V14.01,2013-01-12 06:28:00,
2013-01-12 01:34:00,54.0,53.2,30.17,SW,229,0.0,1.0,97,0.00,,---,0.00,VWS V14.01,2013-01-12 06:34:00,
2013-01-12 01:39:00,54.1,53.3,30.17,SW,230,0.0,0.0,97,0.00,,---,0.00,VWS V14.01,2013-01-12 06:39:00,
2013-01-12 01:43:00,54.3,53.5,30.17,SW,229,0.0,0.0,97,0.00,,---,0.00,VWS V14.01,2013-01-12 06:43:00,
2013-01-12 01:49:00,54.7,54.2,30.17,SW,229,0.0,1.0,98,0.00,,---,0.00,VWS V14.01,2013-01-12 06:49:00,
2013-01-12 01:53:00,54.7,54.2,30.17,SW,228,0.0,0.0,98,0.00,,---,0.00,VWS V14.01,2013-01-12 06:53:00,
2013-01-12 01:58:00,54.3,53.5,30.18,NNW,333,3.0,3.0,97,0.00,,---,0.00,VWS V14.01,2013-01-12 06:58:00,
2013-01-12 02:03:00,53.6,52.8,30.18,NNW,327,4.0,6.0,97,0.00,,---,0.00,VWS V14.01,2013-01-12 07:03:00,
2013-01-12 02:08:00,53.2,52.4,30.18,NW,326,1.0,3.0,97,0.00,,---,0.00,VWS V14.01,2013-01-12 07:08:00,
2013-01-12 02:13:00,52.9,52.1,30.18,NNW,331,2.0,3.0,97,0.00,,---,0.00,VWS V14.01,2013-01-12 07:13:00,
2013-01-12 02:18:00,52.9,52.1,30.18,NNW,330,1.0,1.0,97,0.00,,---,0.00,VWS V14.01,2013-01-12 07:18:00,
2013-01-12 02:23:00,52.8,52.0,30.18,NNW,330,0.0,1.0,97,0.00,,---,0.00,VWS V14.01,2013-01-12 07:23:00,
2013-01-12 02:28:00,52.9,52.1,30.18,NNW,330,0.0,0.0,97,0.00,,---,0.00,VWS V14.01,2013-01-12 07:28:00,
2013-01-12 02:33:00,54.1,53.5,30.18,WSW,238,0.0,0.0,98,0.00,,---,0.00,VWS V14.01,2013-01-12 07:33:00,
2013-01-12 02:38:00,54.9,54.3,30.18,West,276,1.0,1.0,98,0.00,,---,0.00,VWS V14.01,2013-01-12 07:38:00,
2013-01-12 02:44:00,54.4,53.8,30.18,NNW,340,3.0,3.0,98,0.00,,---,0.00,VWS V14.01,2013-01-12 07:44:00,
2013-01-12 02:49:00,53.5,52.7,30.18,NNW,331,3.0,4.0,97,0.00,,---,0.00,VWS V14.01,2013-01-12 07:49:00,
2013-01-12 02:54:00,53.2,52.4,30.18,NNW,327,1.0,3.0,97,0.00,,---,0.00,VWS V14.01,2013-01-12 07:54:00,
2013-01-12 02:59:00,53.0,52.2,30.18,NNW,330,1.0,3.0,97,0.00,,---,0.00,VWS V14.01,2013-01-12 07:59:00,
2013-01-12 03:04:00,52.8,52.0,30.18,NNW,330,0.0,2.0,97,0.00,,---,0.00,VWS V14.01,2013-01-12 08:04:00,
2013-01-12 03:09:00,52.7,51.9,30.18,NNW,330,0.0,0.0,97,0.00,,---,0.00,VWS V14.01,2013-01-12 08:09:00,
2013-01-12 03:14:00,52.8,52.0,30.18,NNW,330,0.0,0.0,97,0.00,,---,0.00,VWS V14.01,2013-01-12 08:14:00,
2013-01-12 03:19:00,53.0,52.2,30.17,NNW,330,0.0,1.0,97,0.00,,---,0.00,VWS V14.01,2013-01-12 08:19:00,
2013-01-12 03:24:00,53.4,52.6,30.17,WNW,284,0.0,1.0,97,0.00,,---,0.00,VWS V14.01,2013-01-12 08:24:00,
2013-01-12 03:29:00,54.2,53.7,30.17,SW,233,1.0,1.0,98,0.00,,---,0.00,VWS V14.01,2013-01-12 08:29:00,
2013-01-12 03:34:00,54.5,54.0,30.17,WSW,250,1.0,1.0,98,0.00,,---,0.00,VWS V14.01,2013-01-12 08:34:00,
2013-01-12 03:39:00,54.5,54.0,30.17,WSW,253,0.0,1.0,98,0.00,,---,0.00,VWS V14.01,2013-01-12 08:39:00,
2013-01-12 03:44:00,54.5,54.0,30.17,WSW,254,0.0,1.0,98,0.00,,---,0.00,VWS V14.01,2013-01-12 08:44:00,
2013-01-12 03:49:00,54.4,53.8,30.17,SSW,195,1.0,1.0,98,0.00,,---,0.00,VWS V14.01,2013-01-12 08:49:00,
2013-01-12 03:54:00,54.4,53.8,30.17,SSW,195,0.0,1.0,98,0.00,,---,0.00,VWS V14.01,2013-01-12 08:54:00,
2013-01-12 03:59:00,54.5,54.0,30.17,SW,228,0.0,1.0,98,0.00,,---,0.00,VWS V14.01,2013-01-12 08:59:00,
2013-01-12 04:04:00,54.6,54.0,30.17,West,271,1.0,1.0,98,0.00,,---,0.00,VWS V14.01,2013-01-12 09:04:00,
2013-01-12 04:09:00,54.6,54.0,30.16,WSW,243,1.0,1.0,98,0.00,,---,0.00,VWS V14.01,2013-01-12 09:09:00,
2013-01-12 04:14:00,54.6,54.0,30.16,WSW,246,1.0,2.0,98,0.00,,---,0.00,VWS V14.01,2013-01-12 09:14:00,
2013-01-12 04:19:00,54.6,54.0,30.16,SW,236,2.0,2.0,98,0.00,,---,0.00,VWS V14.01,2013-01-12 09:19:00,
2013-01-12 04:24:00,54.6,54.0,30.16,SW,225,1.0,1.0,98,0.00,,---,0.00,VWS V14.01,2013-01-12 09:24:00,
2013-01-12 04:29:00,54.5,54.0,30.16,SW,225,0.0,0.0,98,0.00,,---,0.00,VWS V14.01,2013-01-12 09:29:00,
2013-01-12 04:34:00,54.5,54.0,30.16,SW,225,0.0,0.0,98,0.00,,---,0.00,VWS V14.01,2013-01-12 09:34:00,
2013-01-12 04:39:00,54.5,54.0,30.16,SSE,165,0.0,1.0,98,0.00,,---,0.00,VWS V14.01,2013-01-12 09:39:00,
2013-01-12 04:44:00,54.7,54.2,30.16,South,179,2.0,7.0,98,0.00,,---,0.00,VWS V14.01,2013-01-12 09:44:00,
2013-01-12 04:49:00,55.0,54.5,30.16,SSW,194,1.0,6.0,98,0.00,,---,0.00,VWS V14.01,2013-01-12 09:49:00,
2013-01-12 04:54:00,54.9,54.3,30.16,SSW,195,2.0,4.0,98,0.00,,---,0.00,VWS V14.01,2013-01-12 09:54:00,
2013-01-12 04:59:00,54.8,54.2,30.15,SSW,204,3.0,4.0,98,0.00,,---,0.00,VWS V14.01,2013-01-12 09:59:00,
2013-01-12 05:04:00,54.8,54.2,30.15,SSW,200,3.0,5.0,98,0.00,,---,0.00,VWS V14.01,2013-01-12 10:04:00,
2013-01-12 05:09:00,54.7,54.2,30.15,South,191,5.0,5.0,98,0.00,,---,0.00,VWS V14.01,2013-01-12 10:09:00,
2013-01-12 05:14:00,54.6,54.0,30.15,SSW,207,5.0,6.0,98,0.00,,---,0.00,VWS V14.01,2013-01-12 10:14:00,
2013-01-12 05:19:00,54.9,54.3,30.15,SSW,210,4.0,6.0,98,0.00,,---,0.00,VWS V14.01,2013-01-12 10:19:00,
2013-01-12 05:24:00,55.2,54.7,30.15,SW,225,4.0,6.0,98,0.01,,---,0.01,VWS V14.01,2013-01-12 10:24:00,
2013-01-12 05:29:00,55.4,54.8,30.15,SSW,207,5.0,6.0,98,0.01,,---,0.01,VWS V14.01,2013-01-12 10:29:00,
2013-01-12 05:34:00,55.9,55.3,30.15,SSW,194,6.0,8.0,98,0.01,,---,0.01,VWS V14.01,2013-01-12 10:34:00,
2013-01-12 05:39:00,56.1,55.5,30.15,SSW,203,5.0,6.0,98,0.01,,---,0.01,VWS V14.01,2013-01-12 10:39:00,
2013-01-12 05:44:00,56.5,55.9,30.15,SW,221,3.0,7.0,98,0.01,,---,0.01,VWS V14.01,2013-01-12 10:44:00,
2013-01-12 05:49:00,56.9,56.3,30.15,SSW,210,3.0,7.0,98,0.01,,---,0.01,VWS V14.01,2013-01-12 10:49:00,
2013-01-12 05:54:00,57.2,56.6,30.16,SW,236,5.0,6.0,98,0.01,,---,0.01,VWS V14.01,2013-01-12 10:54:00,
2013-01-12 05:59:00,57.5,56.9,30.16,WSW,250,2.0,7.0,98,0.01,,---,0.01,VWS V14.01,2013-01-12 10:59:00,
2013-01-12 06:04:00,57.6,57.0,30.16,SW,222,5.0,7.0,98,0.01,,---,0.01,VWS V14.01,2013-01-12 11:04:00,
2013-01-12 06:09:00,57.9,57.3,30.16,SW,229,5.0,9.0,98,0.01,,---,0.01,VWS V14.01,2013-01-12 11:09:00,
2013-01-12 06:14:00,57.9,57.3,30.16,SW,225,4.0,7.0,98,0.01,,---,0.01,VWS V14.01,2013-01-12 11:14:00,
2013-01-12 06:19:00,57.9,57.3,30.16,SSW,200,5.0,6.0,98,0.01,,---,0.01,VWS V14.01,2013-01-12 11:19:00,
2013-01-12 06:24:00,58.0,57.4,30.16,SSW,193,5.0,6.0,98,0.00,,---,0.01,VWS V14.01,2013-01-12 11:24:00,
2013-01-12 06:29:00,58.0,57.4,30.16,South,187,4.0,6.0,98,0.00,,---,0.01,VWS V14.01,2013-01-12 11:29:00,
2013-01-12 06:34:00,58.0,57.4,30.16,SW,219,4.0,6.0,98,0.00,,---,0.01,VWS V14.01,2013-01-12 11:34:00,
2013-01-12 06:39:00,58.1,57.5,30.16,SW,236,4.0,6.0,98,0.00,,---,0.01,VWS V14.01,2013-01-12 11:39:00,
2013-01-12 06:44:00,58.1,57.5,30.16,SW,214,5.0,6.0,98,0.00,,---,0.01,VWS V14.01,2013-01-12 11:44:00,
2013-01-12 06:49:00,58.0,57.4,30.17,WSW,250,2.0,4.0,98,0.00,,---,0.01,VWS V14.01,2013-01-12 11:49:00,
2013-01-12 06:54:00,58.0,57.4,30.16,SW,231,5.0,6.0,98,0.00,,---,0.01,VWS V14.01,2013-01-12 11:54:00,
2013-01-12 06:59:00,58.1,57.5,30.17,WSW,257,3.0,5.0,98,0.00,,---,0.01,VWS V14.01,2013-01-12 11:59:00,
2013-01-12 07:04:00,58.2,57.6,30.17,WSW,255,3.0,5.0,98,0.00,,---,0.01,VWS V14.01,2013-01-12 12:04:00,
2013-01-12 07:09:00,58.2,57.6,30.17,WSW,248,2.0,5.0,98,0.00,,---,0.01,VWS V14.01,2013-01-12 12:09:00,
2013-01-12 07:14:00,58.2,57.6,30.17,West,264,2.0,6.0,98,0.00,,---,0.01,VWS V14.01,2013-01-12 12:14:00,
2013-01-12 07:19:00,58.2,57.6,30.17,WSW,252,2.0,6.0,98,0.00,,---,0.01,VWS V14.01,2013-01-12 12:19:00,
2013-01-12 07:24:00,58.0,57.4,30.17,WSW,251,3.0,6.0,98,0.00,,---,0.01,VWS V14.01,2013-01-12 12:24:00,
2013-01-12 07:29:00,57.8,57.2,30.18,SW,228,2.0,3.0,98,0.00,,---,0.01,VWS V14.01,2013-01-12 12:29:00,
2013-01-12 07:34:00,57.7,57.1,30.18,West,262,2.0,6.0,98,0.00,,---,0.01,VWS V14.01,2013-01-12 12:34:00,
2013-01-12 07:39:00,57.6,57.0,30.18,West,280,3.0,6.0,98,0.00,,---,0.01,VWS V14.01,2013-01-12 12:39:00,
2013-01-12 07:44:00,57.6,57.0,30.18,WSW,240,2.0,6.0,98,0.00,,---,0.01,VWS V14.01,2013-01-12 12:44:00,
2013-01-12 07:49:00,57.6,57.0,30.18,WSW,245,1.0,6.0,98,0.00,,---,0.01,VWS V14.01,2013-01-12 12:49:00,
2013-01-12 07:54:00,57.6,57.0,30.18,SW,218,1.0,5.0,98,0.00,,---,0.01,VWS V14.01,2013-01-12 12:54:00,
2013-01-12 07:59:00,57.8,57.2,30.18,SW,225,3.0,6.0,98,0.00,,---,0.01,VWS V14.01,2013-01-12 12:59:00,
2013-01-12 08:04:00,57.9,57.3,30.18,WSW,253,3.0,6.0,98,0.00,,---,0.01,VWS V14.01,2013-01-12 13:04:00,
2013-01-12 08:09:00,58.0,57.4,30.19,SW,218,2.0,4.0,98,0.00,,---,0.01,VWS V14.01,2013-01-12 13:09:00,
2013-01-12 08:14:00,58.1,57.5,30.18,SSW,210,3.0,4.0,98,0.00,,---,0.01,VWS V14.01,2013-01-12 13:14:00,
2013-01-12 08:19:00,58.3,57.7,30.19,SSW,210,3.0,6.0,98,0.00,,---,0.01,VWS V14.01,2013-01-12 13:19:00,
2013-01-12 08:24:00,58.3,57.7,30.19,SW,218,4.0,5.0,98,0.00,,---,0.01,VWS V14.01,2013-01-12 13:24:00,
2013-01-12 08:29:00,58.4,57.8,30.19,SSW,197,4.0,5.0,98,0.00,,---,0.01,VWS V14.01,2013-01-12 13:29:00,
2013-01-12 08:34:00,58.4,57.8,30.19,SW,226,3.0,6.0,98,0.00,,---,0.01,VWS V14.01,2013-01-12 13:34:00,
2013-01-12 08:39:00,58.5,57.9,30.19,SW,215,3.0,6.0,98,0.00,,---,0.01,VWS V14.01,2013-01-12 13:39:00,
2013-01-12 08:44:00,58.5,57.9,30.19,SW,222,5.0,5.0,98,0.00,,---,0.01,VWS V14.01,2013-01-12 13:44:00,
2013-01-12 08:49:00,58.6,58.0,30.19,SW,233,5.0,7.0,98,0.00,,---,0.01,VWS V14.01,2013-01-12 13:49:00,
2013-01-12 08:54:00,58.7,58.1,30.19,SW,229,3.0,4.0,98,0.00,,---,0.01,VWS V14.01,2013-01-12 13:54:00,
2013-01-12 08:59:00,58.8,58.2,30.20,WSW,256,2.0,5.0,98,0.00,,---,0.01,VWS V14.01,2013-01-12 13:59:00,
2013-01-12 09:04:00,58.9,58.3,30.20,SW,233,4.0,5.0,98,0.00,,---,0.01,VWS V14.01,2013-01-12 14:04:00,
2013-01-12 09:09:00,59.0,58.4,30.20,SW,214,1.0,4.0,98,0.00,,---,0.01,VWS V14.01,2013-01-12 14:09:00,
2013-01-12 09:14:00,59.1,58.5,30.20,SSW,205,2.0,5.0,98,0.00,,---,0.01,VWS V14.01,2013-01-12 14:14:00,
2013-01-12 09:19:00,59.2,58.6,30.20,WSW,237,6.0,6.0,98,0.00,,---,0.01,VWS V14.01,2013-01-12 14:19:00,
2013-01-12 09:25:00,59.3,58.7,30.20,SW,217,3.0,6.0,98,0.00,,---,0.01,VWS V14.01,2013-01-12 14:25:00,
2013-01-12 09:30:00,59.5,58.9,30.20,WSW,245,3.0,5.0,98,0.00,,---,0.01,VWS V14.01,2013-01-12 14:30:00,
2013-01-12 09:35:00,59.7,59.1,30.20,WNW,285,3.0,7.0,98,0.00,,---,0.01,VWS V14.01,2013-01-12 14:35:00,
2013-01-12 09:40:00,59.9,59.3,30.20,SSW,210,3.0,7.0,98,0.00,,---,0.01,VWS V14.01,2013-01-12 14:40:00,
2013-01-12 09:45:00,60.0,59.4,30.20,SW,224,2.0,5.0,98,0.00,,---,0.01,VWS V14.01,2013-01-12 14:45:00,
2013-01-12 09:50:00,60.1,59.5,30.20,West,262,2.0,5.0,98,0.00,,---,0.01,VWS V14.01,2013-01-12 14:50:00,
2013-01-12 09:55:00,60.2,59.6,30.20,SSW,201,3.0,7.0,98,0.00,,---,0.01,VWS V14.01,2013-01-12 14:55:00,
2013-01-12 10:00:00,60.3,59.7,30.20,SSW,192,1.0,5.0,98,0.00,,---,0.01,VWS V14.01,2013-01-12 15:00:00,
2013-01-12 10:05:00,60.4,59.8,30.20,South,190,3.0,4.0,98,0.00,,---,0.01,VWS V14.01,2013-01-12 15:05:00,
2013-01-12 10:10:00,60.3,59.7,30.20,SW,226,3.0,6.0,98,0.00,,---,0.01,VWS V14.01,2013-01-12 15:10:00,
2013-01-12 10:15:00,60.4,59.8,30.20,South,191,2.0,5.0,98,0.00,,---,0.01,VWS V14.01,2013-01-12 15:15:00,
2013-01-12 10:20:00,60.7,60.1,30.20,SSE,166,1.0,4.0,98,0.00,,---,0.01,VWS V14.01,2013-01-12 15:20:00,
2013-01-12 10:25:00,61.2,60.6,30.19,SSE,160,2.0,3.0,98,0.00,,---,0.01,VWS V14.01,2013-01-12 15:25:00,
2013-01-12 10:30:00,61.3,60.7,30.19,SSW,209,4.0,5.0,98,0.00,,---,0.01,VWS V14.01,2013-01-12 15:30:00,
2013-01-12 10:35:00,61.7,61.1,30.19,SW,228,3.0,7.0,98,0.00,,---,0.01,VWS V14.01,2013-01-12 15:35:00,
2013-01-12 10:40:00,62.0,61.4,30.20,SW,217,4.0,10.0,98,0.00,,---,0.01,VWS V14.01,2013-01-12 15:40:00,
2013-01-12 10:45:00,62.0,61.4,30.20,SW,232,6.0,7.0,98,0.00,,---,0.01,VWS V14.01,2013-01-12 15:45:00,
2013-01-12 10:50:00,62.0,61.4,30.19,WSW,255,5.0,10.0,98,0.00,,---,0.01,VWS V14.01,2013-01-12 15:50:00,
2013-01-12 10:55:00,62.4,61.8,30.19,SSW,209,1.0,5.0,98,0.00,,---,0.01,VWS V14.01,2013-01-12 15:55:00,
2013-01-12 11:00:00,62.6,62.0,30.19,WSW,253,4.0,6.0,98,0.00,,---,0.01,VWS V14.01,2013-01-12 16:00:00,
2013-01-12 11:05:00,62.9,62.0,30.19,NW,317,1.0,5.0,97,0.00,,---,0.01,VWS V14.01,2013-01-12 16:05:00,
2013-01-12 11:10:00,63.3,62.4,30.19,WSW,252,2.0,5.0,97,0.00,,---,0.01,VWS V14.01,2013-01-12 16:10:00,
2013-01-12 11:15:00,63.5,62.0,30.19,WSW,245,4.0,9.0,95,0.00,,---,0.01,VWS V14.01,2013-01-12 16:15:00,
2013-01-12 11:20:00,63.8,62.3,30.19,SSW,208,2.0,5.0,95,0.00,,---,0.01,VWS V14.01,2013-01-12 16:20:00,
2013-01-12 11:25:00,64.2,62.4,30.18,SW,231,1.0,5.0,94,0.00,,---,0.01,VWS V14.01,2013-01-12 16:25:00,
2013-01-12 11:30:00,64.5,62.4,30.18,SW,232,6.0,9.0,93,0.00,,---,0.01,VWS V14.01,2013-01-12 16:30:00,
2013-01-12 11:35:00,64.9,62.5,30.18,WSW,245,6.0,8.0,92,0.00,,---,0.01,VWS V14.01,2013-01-12 16:35:00,
2013-01-12 11:40:00,65.2,62.5,30.17,WSW,238,1.0,7.0,91,0.00,,---,0.01,VWS V14.01,2013-01-12 16:40:00,
2013-01-12 11:45:00,65.6,62.9,30.17,SW,232,5.0,6.0,91,0.00,,---,0.01,VWS V14.01,2013-01-12 16:45:00,
2013-01-12 11:50:00,65.9,62.9,30.17,WSW,256,5.0,10.0,90,0.00,,---,0.01,VWS V14.01,2013-01-12 16:50:00,
2013-01-12 11:55:00,66.4,63.1,30.17,West,266,4.0,7.0,89,0.00,,---,0.01,VWS V14.01,2013-01-12 16:55:00,
2013-01-12 12:00:00,67.2,63.5,30.17,SW,218,5.0,9.0,88,0.00,,---,0.01,VWS V14.01,2013-01-12 17:00:00,
2013-01-12 12:05:00,67.9,63.6,30.16,SW,228,5.0,11.0,86,0.00,,---,0.01,VWS V14.01,2013-01-12 17:05:00,
2013-01-12 12:10:00,68.3,63.3,30.16,West,259,4.0,10.0,84,0.00,,---,0.01,VWS V14.01,2013-01-12 17:10:00,
2013-01-12 12:15:00,68.5,63.1,30.16,NW,307,3.0,12.0,83,0.00,,---,0.01,VWS V14.01,2013-01-12 17:15:00,
2013-01-12 12:20:00,68.7,63.3,30.16,West,274,7.0,11.0,83,0.00,,---,0.01,VWS V14.01,2013-01-12 17:20:00,
2013-01-12 12:25:00,69.2,63.5,30.16,SW,232,3.0,8.0,82,0.00,,---,0.01,VWS V14.01,2013-01-12 17:25:00,
2013-01-12 12:30:00,69.5,63.4,30.15,SW,231,8.0,10.0,81,0.00,,---,0.01,VWS V14.01,2013-01-12 17:30:00,
2013-01-12 12:35:00,69.6,63.2,30.15,West,271,4.0,12.0,80,0.00,,---,0.01,VWS V14.01,2013-01-12 17:35:00,
2013-01-12 12:40:00,69.8,63.0,30.15,West,269,4.0,6.0,79,0.00,,---,0.01,VWS V14.01,2013-01-12 17:40:00,
2013-01-12 12:45:00,70.1,63.3,30.15,WSW,257,5.0,7.0,79,0.00,,---,0.01,VWS V14.01,2013-01-12 17:45:00,
2013-01-12 12:50:00,70.3,62.8,30.15,WSW,250,8.0,11.0,77,0.00,,---,0.01,VWS V14.01,2013-01-12 17:50:00,
2013-01-12 12:55:00,70.3,63.1,30.15,WSW,238,1.0,7.0,78,0.00,,---,0.01,VWS V14.01,2013-01-12 17:55:00,
2013-01-12 13:00:00,70.7,63.1,30.15,SW,228,5.0,10.0,77,0.00,,---,0.01,VWS V14.01,2013-01-12 18:00:00,
2013-01-12 13:05:00,71.0,63.4,30.14,SW,232,6.0,7.0,77,0.00,,---,0.01,VWS V14.01,2013-01-12 18:05:00,
2013-01-12 13:10:00,71.2,63.3,30.14,SW,222,7.0,9.0,76,0.00,,---,0.01,VWS V14.01,2013-01-12 18:10:00,
2013-01-12 13:15:00,71.7,63.0,30.14,WSW,249,2.0,7.0,74,0.00,,---,0.01,VWS V14.01,2013-01-12 18:15:00,
2013-01-12 13:20:00,72.4,62.5,30.14,SW,225,8.0,11.0,71,0.00,,---,0.01,VWS V14.01,2013-01-12 18:20:00,
2013-01-12 13:25:00,72.6,61.9,30.14,West,269,8.0,13.0,69,0.00,,---,0.01,VWS V14.01,2013-01-12 18:25:00,
2013-01-12 13:30:00,72.3,61.6,30.14,SW,232,10.0,13.0,69,0.00,,---,0.01,VWS V14.01,2013-01-12 18:30:00,
2013-01-12 13:35:00,72.4,62.1,30.14,SSW,208,5.0,13.0,70,0.00,,---,0.01,VWS V14.01,2013-01-12 18:35:00,
2013-01-12 13:40:00,72.6,62.3,30.14,South,177,3.0,10.0,70,0.00,,---,0.01,VWS V14.01,2013-01-12 18:40:00,
2013-01-12 13:45:00,72.8,62.0,30.14,WSW,241,3.0,10.0,69,0.00,,---,0.01,VWS V14.01,2013-01-12 18:45:00,
2013-01-12 13:50:00,72.8,61.6,30.14,WSW,242,8.0,12.0,68,0.00,,---,0.01,VWS V14.01,2013-01-12 18:50:00,
2013-01-12 13:55:00,72.9,60.9,30.14,SW,231,3.0,12.0,66,0.00,,---,0.01,VWS V14.01,2013-01-12 18:55:00,
2013-01-12 14:00:00,73.3,61.7,30.14,SSW,207,4.0,11.0,67,0.00,,---,0.01,VWS V14.01,2013-01-12 19:00:00,
2013-01-12 14:05:00,73.5,61.5,30.14,SW,219,4.0,14.0,66,0.00,,---,0.01,VWS V14.01,2013-01-12 19:05:00,
2013-01-12 14:10:00,73.7,61.2,30.14,WSW,245,1.0,9.0,65,0.00,,---,0.01,VWS V14.01,2013-01-12 19:10:00,
2013-01-12 14:15:00,73.9,61.0,30.14,WNW,290,2.0,12.0,64,0.00,,---,0.01,VWS V14.01,2013-01-12 19:15:00,
2013-01-12 14:20:00,73.8,60.0,30.14,WSW,250,7.0,19.0,62,0.00,,---,0.01,VWS V14.01,2013-01-12 19:20:00,
2013-01-12 14:25:00,73.9,60.1,30.13,West,263,7.0,16.0,62,0.00,,---,0.01,VWS V14.01,2013-01-12 19:25:00,
2013-01-12 14:30:00,74.2,60.4,30.14,West,261,4.0,14.0,62,0.00,,---,0.01,VWS V14.01,2013-01-12 19:30:00,
2013-01-12 14:35:00,74.4,60.5,30.13,WSW,242,4.0,12.0,62,0.00,,---,0.01,VWS V14.01,2013-01-12 19:35:00,
2013-01-12 14:40:00,74.7,60.4,30.13,WSW,255,5.0,12.0,61,0.00,,---,0.01,VWS V14.01,2013-01-12 19:40:00,
2013-01-12 14:45:00,75.0,60.7,30.13,SW,232,7.0,9.0,61,0.00,,---,0.01,VWS V14.01,2013-01-12 19:45:00,
2013-01-12 14:50:00,75.0,60.2,30.13,WSW,242,8.0,12.0,60,0.00,,---,0.01,VWS V14.01,2013-01-12 19:50:00,
2013-01-12 14:55:00,74.8,60.0,30.14,WSW,239,12.0,16.0,60,0.00,,---,0.01,VWS V14.01,2013-01-12 19:55:00,
2013-01-12 15:00:00,74.9,60.1,30.13,WNW,294,5.0,16.0,60,0.00,,---,0.01,VWS V14.01,2013-01-12 20:00:00,
2013-01-12 15:05:00,75.1,59.8,30.14,SW,222,8.0,15.0,59,0.00,,---,0.01,VWS V14.01,2013-01-12 20:05:00,
2013-01-12 15:10:00,74.9,60.1,30.14,WSW,249,7.0,16.0,60,0.00,,---,0.01,VWS V14.01,2013-01-12 20:10:00,
2013-01-12 15:15:00,75.0,59.7,30.14,SW,219,4.0,14.0,59,0.00,,---,0.01,VWS V14.01,2013-01-12 20:15:00,
2013-01-12 15:20:00,75.1,59.8,30.13,West,274,6.0,11.0,59,0.00,,---,0.01,VWS V14.01,2013-01-12 20:20:00,
2013-01-12 15:25:00,75.1,59.8,30.13,West,259,12.0,16.0,59,0.00,,---,0.01,VWS V14.01,2013-01-12 20:25:00,
2013-01-12 15:30:00,74.8,59.5,30.13,SW,232,6.0,12.0,59,0.00,,---,0.01,VWS V14.01,2013-01-12 20:30:00,
2013-01-12 15:35:00,74.6,59.8,30.13,WSW,252,11.0,11.0,60,0.00,,---,0.01,VWS V14.01,2013-01-12 20:35:00,
2013-01-12 15:40:00,74.6,60.3,30.13,SSW,211,5.0,9.0,61,0.00,,---,0.01,VWS V14.01,2013-01-12 20:40:00,
2013-01-12 15:45:00,75.0,60.2,30.13,SW,214,3.0,10.0,60,0.00,,---,0.01,VWS V14.01,2013-01-12 20:45:00,
2013-01-12 15:50:00,75.3,60.9,30.13,WNW,295,0.0,6.0,61,0.00,,---,0.01,VWS V14.01,2013-01-12 20:50:00,
2013-01-12 15:55:00,75.5,60.7,30.13,West,260,5.0,8.0,60,0.00,,---,0.01,VWS V14.01,2013-01-12 20:55:00,
2013-01-12 16:00:00,75.3,61.4,30.13,South,179,2.0,7.0,62,0.00,,---,0.01,VWS V14.01,2013-01-12 21:00:00,
2013-01-12 16:05:00,75.2,61.8,30.13,SW,225,6.0,8.0,63,0.00,,---,0.01,VWS V14.01,2013-01-12 21:05:00,
2013-01-12 16:11:00,74.8,61.8,30.13,SW,235,3.0,8.0,64,0.00,,---,0.01,VWS V14.01,2013-01-12 21:11:00,
2013-01-12 16:16:00,74.3,61.8,30.13,SW,225,6.0,10.0,65,0.00,,---,0.01,VWS V14.01,2013-01-12 21:16:00,
2013-01-12 16:21:00,73.7,61.7,30.13,SSW,205,6.0,10.0,66,0.00,,---,0.01,VWS V14.01,2013-01-12 21:21:00,
2013-01-12 16:26:00,73.2,62.0,30.13,SW,219,5.0,9.0,68,0.00,,---,0.01,VWS V14.01,2013-01-12 21:26:00,
2013-01-12 16:31:00,72.7,62.0,30.13,WSW,239,3.0,7.0,69,0.00,,---,0.01,VWS V14.01,2013-01-12 21:31:00,
2013-01-12 16:36:00,72.2,61.9,30.13,South,186,4.0,7.0,70,0.00,,---,0.01,VWS V14.01,2013-01-12 21:36:00,
2013-01-12 16:41:00,71.8,61.9,30.13,South,169,3.0,8.0,71,0.00,,---,0.01,VWS V14.01,2013-01-12 21:41:00,
2013-01-12 16:46:00,71.5,61.6,30.13,SSW,207,2.0,7.0,71,0.00,,---,0.01,VWS V14.01,2013-01-12 21:46:00,
2013-01-12 16:51:00,71.2,61.7,30.13,SSW,202,4.0,6.0,72,0.00,,---,0.01,VWS V14.01,2013-01-12 21:51:00,
2013-01-12 16:56:00,71.0,61.9,30.13,SSE,155,3.0,5.0,73,0.00,,---,0.01,VWS V14.01,2013-01-12 21:56:00,
2013-01-12 17:01:00,70.8,61.7,30.13,SSW,205,1.0,4.0,73,0.00,,---,0.01,VWS V14.01,2013-01-12 22:01:00,
2013-01-12 17:06:00,70.6,61.5,30.13,SSW,201,0.0,2.0,73,0.00,,---,0.01,VWS V14.01,2013-01-12 22:06:00,
2013-01-12 17:11:00,70.5,61.8,30.13,SSW,197,2.0,2.0,74,0.00,,---,0.01,VWS V14.01,2013-01-12 22:11:00,
2013-01-12 17:16:00,70.3,61.6,30.13,South,170,2.0,3.0,74,0.00,,---,0.01,VWS V14.01,2013-01-12 22:16:00,
2013-01-12 17:21:00,70.1,61.8,30.13,SSE,158,2.0,3.0,75,0.00,,---,0.01,VWS V14.01,2013-01-12 22:21:00,
2013-01-12 17:26:00,70.0,61.7,30.13,SSE,160,2.0,2.0,75,0.00,,---,0.01,VWS V14.01,2013-01-12 22:26:00,
2013-01-12 17:31:00,69.9,62.0,30.13,SSE,166,2.0,3.0,76,0.00,,---,0.01,VWS V14.01,2013-01-12 22:31:00,
2013-01-12 17:36:00,69.7,61.8,30.13,SSE,163,2.0,3.0,76,0.00,,---,0.01,VWS V14.01,2013-01-12 22:36:00,
2013-01-12 17:41:00,69.6,61.7,30.13,SSE,153,2.0,3.0,76,0.00,,---,0.01,VWS V14.01,2013-01-12 22:41:00,
2013-01-12 17:46:00,69.4,61.9,30.13,SSE,148,2.0,2.0,77,0.00,,---,0.01,VWS V14.01,2013-01-12 22:46:00,
2013-01-12 17:51:00,69.3,61.8,30.13,SSE,163,2.0,4.0,77,0.00,,---,0.01,VWS V14.01,2013-01-12 22:51:00,
2013-01-12 17:56:00,69.1,62.0,30.13,SSE,158,2.0,4.0,78,0.00,,---,0.01,VWS V14.01,2013-01-12 22:56:00,
2013-01-12 18:01:00,69.0,62.2,30.12,SSE,166,3.0,4.0,79,0.00,,---,0.01,VWS V14.01,2013-01-12 23:01:00,
2013-01-12 18:06:00,68.9,62.1,30.12,SSE,155,3.0,4.0,79,0.00,,---,0.01,VWS V14.01,2013-01-12 23:06:00,
2013-01-12 18:11:00,68.8,62.0,30.12,South,170,3.0,4.0,79,0.00,,---,0.01,VWS V14.01,2013-01-12 23:11:00,
2013-01-12 18:16:00,68.7,62.3,30.13,SSW,192,3.0,4.0,80,0.00,,---,0.01,VWS V14.01,2013-01-12 23:16:00,
2013-01-12 18:21:00,68.6,62.2,30.12,SSE,159,2.0,3.0,80,0.00,,---,0.01,VWS V14.01,2013-01-12 23:21:00,
2013-01-12 18:26:00,68.5,62.1,30.12,South,170,3.0,3.0,80,0.00,,---,0.01,VWS V14.01,2013-01-12 23:26:00,
2013-01-12 18:31:00,68.4,62.0,30.12,SSE,161,3.0,4.0,80,0.00,,---,0.01,VWS V14.01,2013-01-12 23:31:00,
2013-01-12 18:36:00,68.3,61.9,30.12,SSW,193,2.0,3.0,80,0.00,,---,0.01,VWS V14.01,2013-01-12 23:36:00,
2013-01-12 18:41:00,68.2,62.2,30.12,SSE,159,3.0,3.0,81,0.00,,---,0.01,VWS V14.01,2013-01-12 23:41:00,
2013-01-12 18:46:00,68.1,62.1,30.12,South,181,2.0,3.0,81,0.00,,---,0.01,VWS V14.01,2013-01-12 23:46:00,
2013-01-12 18:51:00,68.0,62.0,30.12,SSE,149,2.0,3.0,81,0.00,,---,0.01,VWS V14.01,2013-01-12 23:51:00,
2013-01-12 18:56:00,68.0,62.0,30.11,SSE,150,2.0,3.0,81,0.00,,---,0.01,VWS V14.01,2013-01-12 23:56:00,
2013-01-12 19:01:00,68.0,62.0,30.11,SSE,158,2.0,3.0,81,0.00,,---,0.01,VWS V14.01,2013-01-13 00:01:00,
2013-01-12 19:06:00,68.0,62.0,30.12,South,169,1.0,3.0,81,0.00,,---,0.01,VWS V14.01,2013-01-13 00:06:00,
2013-01-12 19:11:00,68.0,62.0,30.12,SSE,160,2.0,3.0,81,0.00,,---,0.01,VWS V14.01,2013-01-13 00:11:00,
2013-01-12 19:16:00,67.9,61.9,30.12,SSE,156,3.0,4.0,81,0.00,,---,0.01,VWS V14.01,2013-01-13 00:16:00,
2013-01-12 19:21:00,67.6,61.6,30.11,SE,145,3.0,5.0,81,0.00,,---,0.01,VWS V14.01,2013-01-13 00:21:00,
2013-01-12 19:26:00,67.4,61.7,30.12,SSE,155,3.0,3.0,82,0.00,,---,0.01,VWS V14.01,2013-01-13 00:26:00,
2013-01-12 19:31:00,67.2,61.5,30.12,SSE,157,2.0,4.0,82,0.00,,---,0.01,VWS V14.01,2013-01-13 00:31:00,
2013-01-12 19:36:00,67.1,61.4,30.12,SSE,153,2.0,3.0,82,0.00,,---,0.01,VWS V14.01,2013-01-13 00:36:00,
2013-01-12 19:41:00,67.0,61.3,30.12,SE,146,3.0,3.0,82,0.00,,---,0.01,VWS V14.01,2013-01-13 00:41:00,
2013-01-12 19:46:00,66.9,61.2,30.12,SSE,163,2.0,3.0,82,0.00,,---,0.01,VWS V14.01,2013-01-13 00:46:00,
2013-01-12 19:51:00,66.8,61.5,30.11,SSE,151,2.0,3.0,83,0.00,,---,0.01,VWS V14.01,2013-01-13 00:51:00,
2013-01-12 19:56:00,66.8,61.5,30.11,SSE,156,2.0,3.0,83,0.00,,---,0.01,VWS V14.01,2013-01-13 00:56:00,
2013-01-12 20:01:00,66.7,61.0,30.11,SSE,155,3.0,3.0,82,0.00,,---,0.01,VWS V14.01,2013-01-13 01:01:00,
2013-01-12 20:06:00,66.6,61.3,30.11,SSE,156,2.0,4.0,83,0.00,,---,0.01,VWS V14.01,2013-01-13 01:06:00,
2013-01-12 20:11:00,66.5,61.2,30.11,SSE,164,2.0,3.0,83,0.00,,---,0.01,VWS V14.01,2013-01-13 01:11:00,
2013-01-12 20:16:00,66.4,61.1,30.11,SSE,168,2.0,2.0,83,0.00,,---,0.01,VWS V14.01,2013-01-13 01:16:00,
2013-01-12 20:21:00,66.2,60.9,30.12,SSE,162,2.0,3.0,83,0.00,,---,0.01,VWS V14.01,2013-01-13 01:21:00,
2013-01-12 20:26:00,66.1,61.1,30.11,SSE,152,2.0,3.0,84,0.00,,---,0.01,VWS V14.01,2013-01-13 01:26:00,
2013-01-12 20:31:00,65.9,60.9,30.12,SSE,158,2.0,3.0,84,0.00,,---,0.01,VWS V14.01,2013-01-13 01:31:00,
2013-01-12 20:36:00,65.8,60.8,30.11,SE,146,2.0,3.0,84,0.00,,---,0.01,VWS V14.01,2013-01-13 01:36:00,
2013-01-12 20:41:00,65.7,60.7,30.11,SE,146,2.0,2.0,84,0.00,,---,0.01,VWS V14.01,2013-01-13 01:41:00,
2013-01-12 20:46:00,65.6,60.6,30.11,SSE,155,2.0,3.0,84,0.00,,---,0.01,VWS V14.01,2013-01-13 01:46:00,
2013-01-12 20:51:00,65.6,60.6,30.11,SSE,157,2.0,3.0,84,0.00,,---,0.01,VWS V14.01,2013-01-13 01:51:00,
2013-01-12 20:56:00,65.6,60.6,30.11,SSE,159,2.0,3.0,84,0.00,,---,0.01,VWS V14.01,2013-01-13 01:56:00,
2013-01-12 21:01:00,65.5,60.5,30.11,SSE,153,2.0,3.0,84,0.00,,---,0.01,VWS V14.01,2013-01-13 02:01:00,
2013-01-12 21:06:00,65.3,60.3,30.11,SSE,159,1.0,2.0,84,0.00,,---,0.01,VWS V14.01,2013-01-13 02:06:00,
2013-01-12 21:11:00,65.2,60.6,30.12,South,173,1.0,1.0,85,0.00,,---,0.01,VWS V14.01,2013-01-13 02:11:00,
2013-01-12 21:16:00,65.1,60.5,30.12,South,169,1.0,1.0,85,0.00,,---,0.01,VWS V14.01,2013-01-13 02:16:00,
2013-01-12 21:21:00,64.9,60.3,30.12,South,169,1.0,1.0,85,0.00,,---,0.01,VWS V14.01,2013-01-13 02:21:00,
2013-01-12 21:26:00,64.7,60.4,30.12,SE,146,2.0,2.0,86,0.00,,---,0.01,VWS V14.01,2013-01-13 02:26:00,
2013-01-12 21:31:00,64.6,60.3,30.12,SSE,156,1.0,1.0,86,0.00,,---,0.01,VWS V14.01,2013-01-13 02:31:00,
2013-01-12 21:36:00,64.5,60.2,30.12,SSE,153,2.0,2.0,86,0.00,,---,0.01,VWS V14.01,2013-01-13 02:36:00,
2013-01-12 21:41:00,64.5,60.2,30.12,SSE,149,2.0,2.0,86,0.00,,---,0.01,VWS V14.01,2013-01-13 02:41:00,
2013-01-12 21:46:00,64.4,60.1,30.11,SE,145,3.0,3.0,86,0.00,,---,0.01,VWS V14.01,2013-01-13 02:46:00,
2013-01-12 21:51:00,64.4,60.1,30.11,SE,146,2.0,2.0,86,0.00,,---,0.01,VWS V14.01,2013-01-13 02:51:00,
2013-01-12 21:56:00,64.6,60.0,30.11,SE,136,2.0,3.0,85,0.00,,---,0.01,VWS V14.01,2013-01-13 02:56:00,
2013-01-12 22:01:00,64.4,60.1,30.11,SE,124,3.0,3.0,86,0.00,,---,0.01,VWS V14.01,2013-01-13 03:01:00,
2013-01-12 22:06:00,64.4,60.1,30.11,SE,130,3.0,3.0,86,0.00,,---,0.01,VWS V14.01,2013-01-13 03:06:00,
2013-01-12 22:11:00,64.4,59.8,30.11,SE,145,3.0,3.0,85,0.00,,---,0.01,VWS V14.01,2013-01-13 03:11:00,
2013-01-12 22:16:00,64.4,59.8,30.12,SE,146,3.0,3.0,85,0.00,,---,0.01,VWS V14.01,2013-01-13 03:16:00,
2013-01-12 22:21:00,64.5,59.9,30.11,SSE,157,3.0,3.0,85,0.00,,---,0.01,VWS V14.01,2013-01-13 03:21:00,
2013-01-12 22:26:00,64.4,59.8,30.12,SE,139,3.0,4.0,85,0.00,,---,0.01,VWS V14.01,2013-01-13 03:26:00,
2013-01-12 22:31:00,64.1,59.8,30.12,SE,141,3.0,4.0,86,0.00,,---,0.01,VWS V14.01,2013-01-13 03:31:00,
2013-01-12 22:36:00,63.9,59.6,30.12,SSE,147,3.0,4.0,86,0.00,,---,0.01,VWS V14.01,2013-01-13 03:36:00,
2013-01-12 22:41:00,63.7,59.8,30.12,SSE,153,4.0,4.0,87,0.00,,---,0.01,VWS V14.01,2013-01-13 03:41:00,
2013-01-12 22:46:00,63.6,59.7,30.12,South,169,4.0,4.0,87,0.00,,---,0.01,VWS V14.01,2013-01-13 03:46:00,
2013-01-12 22:51:00,63.4,59.5,30.12,SE,137,3.0,4.0,87,0.00,,---,0.01,VWS V14.01,2013-01-13 03:51:00,
2013-01-12 22:56:00,63.4,59.5,30.12,SSE,163,4.0,4.0,87,0.00,,---,0.01,VWS V14.01,2013-01-13 03:56:00,
2013-01-12 23:02:00,63.3,59.4,30.11,SSE,153,3.0,5.0,87,0.00,,---,0.01,VWS V14.01,2013-01-13 04:02:00,
2013-01-12 23:07:00,63.3,59.4,30.12,SE,141,2.0,3.0,87,0.00,,---,0.01,VWS V14.01,2013-01-13 04:07:00,
2013-01-12 23:12:00,63.1,59.2,30.11,SE,136,4.0,6.0,87,0.00,,---,0.01,VWS V14.01,2013-01-13 04:12:00,
2013-01-12 23:17:00,63.0,59.1,30.11,South,174,2.0,5.0,87,0.00,,---,0.01,VWS V14.01,2013-01-13 04:17:00,
2013-01-12 23:22:00,63.0,59.1,30.11,SE,141,4.0,6.0,87,0.00,,---,0.01,VWS V14.01,2013-01-13 04:22:00,
2013-01-12 23:27:00,63.0,59.1,30.11,SE,127,5.0,5.0,87,0.00,,---,0.01,VWS V14.01,2013-01-13 04:27:00,
2013-01-12 23:32:00,63.0,59.1,30.11,SSE,163,4.0,5.0,87,0.00,,---,0.01,VWS V14.01,2013-01-13 04:32:00,
2013-01-12 23:37:00,62.8,58.9,30.11,SSE,167,4.0,4.0,87,0.00,,---,0.01,VWS V14.01,2013-01-13 04:37:00,
2013-01-12 23:42:00,62.6,58.7,30.11,SSE,166,4.0,5.0,87,0.00,,---,0.01,VWS V14.01,2013-01-13 04:42:00,
2013-01-12 23:47:00,62.6,58.7,30.11,South,191,4.0,5.0,87,0.00,,---,0.01,VWS V14.01,2013-01-13 04:47:00,
2013-01-12 23:52:00,62.4,58.5,30.11,South,172,3.0,5.0,87,0.00,,---,0.01,VWS V14.01,2013-01-13 04:52:00,
2013-01-12 23:57:00,62.4,58.5,30.11,SSE,149,4.0,5.0,87,0.00,,---,0.01,VWS V14.01,2013-01-13 04:57:00,